TimeCDT,TemperatureF,Dew PointF,Humidity,Sea Level PressureIn,VisibilityMPH,Wind Direction,Wind SpeedMPH,Gust SpeedMPH,PrecipitationIn,Events,Conditions,WindDirDegrees,DateUTC
12:52 AM,55.0,43.0,64,30.12,10.0,North,5.8,-,N/A,,Clear,350,2012-09-07 05:52:00
1:52 AM,51.1,44.1,77,30.13,10.0,Calm,Calm,-,N/A,,Clear,0,2012-09-07 06:52:00
2:52 AM,48.9,43.0,80,30.13,10.0,WNW,4.6,-,N/A,,Clear,300,2012-09-07 07:52:00
3:52 AM,48.9,43.0,80,30.13,10.0,WNW,5.8,-,N/A,,Clear,300,2012-09-07 08:52:00
4:52 AM,46.9,42.1,83,30.15,10.0,WNW,8.1,-,N/A,,Clear,300,2012-09-07 09:52:00
5:52 AM,46.0,42.1,86,30.18,10.0,WNW,6.9,-,N/A,,Scattered Clouds,300,2012-09-07 10:52:00
6:52 AM,45.0,42.1,90,30.19,10.0,NW,9.2,-,N/A,,Mostly Cloudy,310,2012-09-07 11:52:00
7:52 AM,48.0,42.1,80,30.21,10.0,NW,9.2,-,N/A,,Overcast,320,2012-09-07 12:52:00
8:52 AM,51.1,43.0,74,30.22,10.0,WNW,9.2,-,N/A,,Scattered Clouds,300,2012-09-07 13:52:00
9:52 AM,55.0,45.0,69,30.22,10.0,WNW,8.1,-,N/A,,Clear,300,2012-09-07 14:52:00
10:52 AM,59.0,45.0,60,30.23,10.0,NW,10.4,16.1,N/A,,Clear,320,2012-09-07 15:52:00
11:52 AM,63.0,44.1,50,30.22,10.0,Variable,6.9,16.1,N/A,,Partly Cloudy,0,2012-09-07 16:52:00
12:52 PM,63.0,42.1,46,30.22,10.0,NW,13.8,18.4,N/A,,Overcast,310,2012-09-07 17:52:00
1:52 PM,66.9,43.0,42,30.21,10.0,NW,10.4,21.9,N/A,,Mostly Cloudy,320,2012-09-07 18:52:00
2:52 PM,66.0,42.1,42,30.20,10.0,NNW,12.7,18.4,N/A,,Partly Cloudy,330,2012-09-07 19:52:00
3:52 PM,69.1,42.1,38,30.19,10.0,NW,15.0,20.7,N/A,,Clear,310,2012-09-07 20:52:00
4:52 PM,70.0,39.9,33,30.17,10.0,NNW,15.0,20.7,N/A,,Clear,340,2012-09-07 21:52:00
5:52 PM,70.0,39.9,33,30.17,10.0,NNW,10.4,18.4,N/A,,Clear,330,2012-09-07 22:52:00
6:52 PM,68.0,39.9,36,30.17,10.0,NNW,10.4,-,N/A,,Clear,340,2012-09-07 23:52:00
7:52 PM,66.0,41.0,40,30.17,10.0,NW,5.8,-,N/A,,Clear,320,2012-09-08 00:52:00
8:52 PM,62.1,42.1,48,30.17,10.0,Calm,Calm,-,N/A,,Clear,0,2012-09-08 01:52:00
9:52 PM,55.9,42.1,60,30.16,10.0,Calm,Calm,-,N/A,,Clear,0,2012-09-08 02:52:00
10:52 PM,54.0,39.9,59,30.15,10.0,WSW,6.9,-,N/A,,Clear,240,2012-09-08 03:52:00
11:52 PM,52.0,39.9,63,30.14,10.0,WSW,4.6,-,N/A,,Clear,240,2012-09-08 04:52:00